{"data":{"norad_id":64352,"intl_designator":"2025-126J","name":"STARLINK-34385","alt_names":[],"object_type":"PAYLOAD","status":"ACTIVE","operator":null,"country":"US","launch_date":"2025-06-13","launch_site_code":"AFWTR","launch_vehicle":null,"mission":null,"orbit_class":"UNKNOWN","rcs_meters":null,"size_class":null,"mass_kg":null,"dimensions":null,"purposes":["comms"],"wikipedia_slug":null,"has_3d_model":false,"image_url":null,"decayed_at":null,"tle_current":{"epoch":"2026-09-20T09:45:25.105248Z","epoch_age_seconds":142626,"freshness":"FRESH","line1":"1 64352U 25126J   26263.40654057  .00010248  00000+0  36045-3 0  9991","line2":"2 64352  70.0011 261.3129 0003245 278.8902  81.1906 15.29578099 69909","mean_motion":15.29578099,"eccentricity":0.0003245,"inclination_deg":70.0011,"raan_deg":261.3129,"arg_perigee_deg":278.8902,"mean_anomaly_deg":81.1906,"bstar":0.00036045,"rev_number":6990,"period_min":94.143607373918,"perigee_km":474.84806731742,"apogee_km":479.29709833667,"semimajor_km":6855.209582827,"source":"CELESTRAK","updated_at":"2026-09-21T09:00:35.317463Z"}}}